Year,Month,Day,Hour,Minute,Value (Times are PST for windspeed in km/hr)
2006,01,28,00,00,42.00
2006,01,28,00,01,40.60
2006,01,28,00,02,40.70
2006,01,28,00,03,40.10
2006,01,28,00,04,45.10
2006,01,28,00,05,38.80
2006,01,28,00,06,38.30
2006,01,28,00,07,34.40
2006,01,28,00,08,29.20
2006,01,28,00,09,38.50
2006,01,28,00,10,38.00
2006,01,28,00,11,32.30
2006,01,28,00,12,39.10
2006,01,28,00,13,32.10
2006,01,28,00,14,42.20
2006,01,28,00,15,38.40
2006,01,28,00,16,37.70
2006,01,28,00,17,32.50
2006,01,28,00,18,29.30
2006,01,28,00,19,36.90
2006,01,28,00,20,42.80
2006,01,28,00,21,36.30
2006,01,28,00,22,41.60
2006,01,28,00,23,49.90
2006,01,28,00,24,30.10
2006,01,28,00,25,36.70
2006,01,28,00,26,28.70
2006,01,28,00,27,32.40
2006,01,28,00,28,32.60
2006,01,28,00,29,32.50
2006,01,28,00,30,32.10
2006,01,28,00,31,37.90
2006,01,28,00,32,32.50
2006,01,28,00,33,41.50
2006,01,28,00,34,41.30
2006,01,28,00,35,36.70
2006,01,28,00,36,43.00
2006,01,28,00,37,36.80
2006,01,28,00,38,43.90
2006,01,28,00,39,36.30
2006,01,28,00,40,34.00
2006,01,28,00,41,27.60
2006,01,28,00,42,37.90
2006,01,28,00,43,37.10
2006,01,28,00,44,29.90
2006,01,28,00,45,35.70
2006,01,28,00,46,33.60
2006,01,28,00,47,41.30
2006,01,28,00,48,42.90
2006,01,28,00,49,28.80
2006,01,28,00,50,35.00
2006,01,28,00,51,41.90
2006,01,28,00,52,44.30
2006,01,28,00,53,46.70
2006,01,28,00,54,41.50
2006,01,28,00,55,35.10
2006,01,28,00,56,38.10
2006,01,28,00,57,38.40
2006,01,28,00,58,32.50
2006,01,28,00,59,37.50
2006,01,28,01,00,38.50
2006,01,28,01,01,37.70
2006,01,28,01,02,32.40
2006,01,28,01,03,45.60
2006,01,28,01,04,40.50
2006,01,28,01,05,40.50
2006,01,28,01,06,35.20
2006,01,28,01,07,32.10
2006,01,28,01,08,39.70
2006,01,28,01,09,42.00
2006,01,28,01,10,44.70
2006,01,28,01,11,46.70
2006,01,28,01,12,37.40
2006,01,28,01,13,32.40
2006,01,28,01,14,31.90
2006,01,28,01,15,28.40
2006,01,28,01,16,31.90
2006,01,28,01,17,34.80
2006,01,28,01,18,48.30
2006,01,28,01,19,37.90
2006,01,28,01,20,37.00
2006,01,28,01,21,43.20
2006,01,28,01,22,35.20
2006,01,28,01,23,35.20
2006,01,28,01,24,42.10
2006,01,28,01,25,36.10
2006,01,28,01,26,44.40
2006,01,28,01,27,31.50
2006,01,28,01,28,42.30
2006,01,28,01,29,39.90
2006,01,28,01,30,31.40
2006,01,28,01,31,34.90
2006,01,28,01,32,28.20
2006,01,28,01,33,33.00
2006,01,28,01,34,34.20
2006,01,28,01,35,35.20
2006,01,28,01,36,28.50
2006,01,28,01,37,35.90
2006,01,28,01,38,32.30
2006,01,28,01,39,32.80
2006,01,28,01,40,36.50
2006,01,28,01,41,45.20
2006,01,28,01,42,38.10
2006,01,28,01,43,38.60
2006,01,28,01,44,40.90
2006,01,28,01,45,48.30
2006,01,28,01,46,40.50
2006,01,28,01,47,47.50
2006,01,28,01,48,37.50
2006,01,28,01,49,36.00
2006,01,28,01,50,48.60
2006,01,28,01,51,41.40
2006,01,28,01,52,38.10
2006,01,28,01,53,40.80
2006,01,28,01,54,39.10
2006,01,28,01,55,38.30
2006,01,28,01,56,30.30
2006,01,28,01,57,47.10
2006,01,28,01,58,44.80
2006,01,28,01,59,40.00
2006,01,28,02,00,41.10
2006,01,28,02,01,32.40
2006,01,28,02,02,37.30
2006,01,28,02,03,36.20
2006,01,28,02,04,33.40
2006,01,28,02,05,38.30
2006,01,28,02,06,40.40
2006,01,28,02,07,44.30
2006,01,28,02,08,39.80
2006,01,28,02,09,40.90
2006,01,28,02,10,41.80
2006,01,28,02,11,41.00
2006,01,28,02,12,28.00
2006,01,28,02,13,28.20
2006,01,28,02,14,29.60
2006,01,28,02,15,39.50
2006,01,28,02,16,55.60
2006,01,28,02,17,52.30
2006,01,28,02,18,41.10
2006,01,28,02,19,33.70
2006,01,28,02,20,32.40
2006,01,28,02,21,26.70
2006,01,28,02,22,26.40
2006,01,28,02,23,33.10
2006,01,28,02,24,29.50
2006,01,28,02,25,37.70
2006,01,28,02,26,30.60
2006,01,28,02,27,32.70
2006,01,28,02,28,42.60
2006,01,28,02,29,28.40
2006,01,28,02,30,35.30
2006,01,28,02,31,34.90
2006,01,28,02,32,28.20
2006,01,28,02,33,46.80
2006,01,28,02,34,41.90
2006,01,28,02,35,36.20
2006,01,28,02,36,34.00
2006,01,28,02,37,38.60
2006,01,28,02,38,36.30
2006,01,28,02,39,34.00
2006,01,28,02,40,41.00
2006,01,28,02,41,38.70
2006,01,28,02,42,43.90
2006,01,28,02,43,33.30
2006,01,28,02,44,25.70
2006,01,28,02,45,32.40
2006,01,28,02,46,36.20
2006,01,28,02,47,41.30
2006,01,28,02,48,36.90
2006,01,28,02,49,26.60
2006,01,28,02,50,26.00
2006,01,28,02,51,30.70
2006,01,28,02,52,33.30
2006,01,28,02,53,33.80
2006,01,28,02,54,27.10
2006,01,28,02,55,34.00
2006,01,28,02,56,33.50
2006,01,28,02,57,39.80
2006,01,28,02,58,30.70
2006,01,28,02,59,29.50
2006,01,28,03,00,40.70
2006,01,28,03,01,41.10
2006,01,28,03,02,35.00
2006,01,28,03,03,31.90
2006,01,28,03,04,33.60
2006,01,28,03,05,29.10
2006,01,28,03,06,37.30
2006,01,28,03,07,36.80
2006,01,28,03,08,32.30
2006,01,28,03,09,40.60
2006,01,28,03,10,34.10
2006,01,28,03,11,31.50
2006,01,28,03,12,31.60
2006,01,28,03,13,28.30
2006,01,28,03,14,27.30
2006,01,28,03,15,29.00
2006,01,28,03,16,33.90
2006,01,28,03,17,36.80
2006,01,28,03,18,34.50
2006,01,28,03,19,34.20
2006,01,28,03,20,36.00
2006,01,28,03,21,32.50
2006,01,28,03,22,31.00
2006,01,28,03,23,29.90
2006,01,28,03,24,36.90
2006,01,28,03,25,37.10
2006,01,28,03,26,22.90
2006,01,28,03,27,24.70
2006,01,28,03,28,18.40
2006,01,28,03,29,16.90
2006,01,28,03,30,16.40
2006,01,28,03,31,25.50
2006,01,28,03,32,25.80
2006,01,28,03,33,25.40
2006,01,28,03,34,20.60
2006,01,28,03,35,20.00
2006,01,28,03,36,32.20
2006,01,28,03,37,29.70
2006,01,28,03,38,25.60
2006,01,28,03,39,22.40
2006,01,28,03,40,25.70
2006,01,28,03,41,26.90
2006,01,28,03,42,34.80
2006,01,28,03,43,37.40
2006,01,28,03,44,32.10
2006,01,28,03,45,28.80
2006,01,28,03,46,31.10
2006,01,28,03,47,25.30
2006,01,28,03,48,28.70
2006,01,28,03,49,31.60
2006,01,28,03,50,25.80
2006,01,28,03,51,23.30
2006,01,28,03,52,22.90
2006,01,28,03,53,20.90
2006,01,28,03,54,26.00
2006,01,28,03,55,28.20
2006,01,28,03,56,22.60
2006,01,28,03,57,22.90
2006,01,28,03,58,20.50
2006,01,28,03,59,16.60
2006,01,28,04,00,27.00
2006,01,28,04,01,26.60
2006,01,28,04,02,36.60
2006,01,28,04,03,18.60
2006,01,28,04,04,34.10
2006,01,28,04,05,21.70
2006,01,28,04,06,22.20
2006,01,28,04,07,22.30
2006,01,28,04,08,25.80
2006,01,28,04,09,18.60
2006,01,28,04,10,19.50
2006,01,28,04,11,34.40
2006,01,28,04,12,31.30
2006,01,28,04,13,24.50
2006,01,28,04,14,24.10
2006,01,28,04,15,22.40
2006,01,28,04,16,28.10
2006,01,28,04,17,27.30
2006,01,28,04,18,23.40
2006,01,28,04,19,22.40
2006,01,28,04,20,17.10
2006,01,28,04,21,20.50
2006,01,28,04,22,21.50
2006,01,28,04,23,27.20
2006,01,28,04,24,30.60
2006,01,28,04,25,23.50
2006,01,28,04,26,17.90
2006,01,28,04,27,21.40
2006,01,28,04,28,15.50
2006,01,28,04,29,20.20
2006,01,28,04,30,19.20
2006,01,28,04,31,25.80
2006,01,28,04,32,18.80
2006,01,28,04,33,18.60
2006,01,28,04,34,18.40
2006,01,28,04,35,19.20
2006,01,28,04,36,20.90
2006,01,28,04,37,15.00
2006,01,28,04,38,21.80
2006,01,28,04,39,26.00
2006,01,28,04,40,19.70
2006,01,28,04,41,26.90
2006,01,28,04,42,15.50
2006,01,28,04,43,17.00
2006,01,28,04,44,15.40
2006,01,28,04,45,13.20
2006,01,28,04,46,17.60
2006,01,28,04,47,18.90
2006,01,28,04,48,20.10
2006,01,28,04,49,17.30
2006,01,28,04,50,16.40
2006,01,28,04,51,10.60
2006,01,28,04,52,17.10
2006,01,28,04,53,12.50
2006,01,28,04,54,11.40
2006,01,28,04,55,18.20
2006,01,28,04,56,12.10
2006,01,28,04,57,7.90
2006,01,28,04,58,8.70
2006,01,28,04,59,13.80
2006,01,28,05,00,11.10
2006,01,28,05,01,14.90
2006,01,28,05,02,16.70
2006,01,28,05,03,12.60
2006,01,28,05,04,13.00
2006,01,28,05,05,10.90
2006,01,28,05,06,9.20
2006,01,28,05,07,8.50
2006,01,28,05,08,11.00
2006,01,28,05,09,16.10
2006,01,28,05,10,11.80
2006,01,28,05,11,12.60
2006,01,28,05,12,13.30
2006,01,28,05,13,11.30
2006,01,28,05,14,15.10
2006,01,28,05,15,16.50
2006,01,28,05,16,20.20
2006,01,28,05,17,21.30
2006,01,28,05,18,22.50
2006,01,28,05,19,24.10
2006,01,28,05,20,26.30
2006,01,28,05,21,27.60
2006,01,28,05,22,27.40
2006,01,28,05,23,40.00
2006,01,28,05,24,29.90
2006,01,28,05,25,22.40
2006,01,28,05,26,21.20
2006,01,28,05,27,22.60
2006,01,28,05,28,18.80
2006,01,28,05,29,18.20
2006,01,28,05,30,17.40
2006,01,28,05,31,13.90
2006,01,28,05,32,15.00
2006,01,28,05,33,13.70
2006,01,28,05,34,13.80
2006,01,28,05,35,16.90
2006,01,28,05,36,13.40
2006,01,28,05,37,18.40
2006,01,28,05,38,14.50
2006,01,28,05,39,19.30
2006,01,28,05,40,15.40
2006,01,28,05,41,17.20
2006,01,28,05,42,18.80
2006,01,28,05,43,12.70
2006,01,28,05,44,19.20
2006,01,28,05,45,11.90
2006,01,28,05,46,13.00
2006,01,28,05,47,14.20
2006,01,28,05,48,12.10
2006,01,28,05,49,12.60
2006,01,28,05,50,12.80
2006,01,28,05,51,12.80
2006,01,28,05,52,13.90
2006,01,28,05,53,18.10
2006,01,28,05,54,9.60
2006,01,28,05,55,12.20
2006,01,28,05,56,8.00
2006,01,28,05,57,7.70
2006,01,28,05,58,14.30
2006,01,28,05,59,16.10
2006,01,28,06,00,14.40
2006,01,28,06,01,19.60
2006,01,28,06,02,17.90
2006,01,28,06,03,13.00
2006,01,28,06,04,14.00
2006,01,28,06,05,9.20
2006,01,28,06,06,12.20
2006,01,28,06,07,13.80
2006,01,28,06,08,11.50
2006,01,28,06,09,10.50
2006,01,28,06,10,9.20
2006,01,28,06,11,8.60
2006,01,28,06,12,12.30
2006,01,28,06,13,8.10
2006,01,28,06,14,13.00
2006,01,28,06,15,8.70
2006,01,28,06,16,8.50
2006,01,28,06,17,6.60
2006,01,28,06,18,6.80
2006,01,28,06,19,7.20
2006,01,28,06,20,8.80
2006,01,28,06,21,9.30
2006,01,28,06,22,10.10
2006,01,28,06,23,8.40
2006,01,28,06,24,11.20
2006,01,28,06,25,12.40
2006,01,28,06,26,11.70
2006,01,28,06,27,12.90
2006,01,28,06,28,14.00
2006,01,28,06,29,13.80
2006,01,28,06,30,22.60
2006,01,28,06,31,20.40
2006,01,28,06,32,17.10
2006,01,28,06,33,20.20
2006,01,28,06,34,18.60
2006,01,28,06,35,16.40
2006,01,28,06,36,13.00
2006,01,28,06,37,14.10
2006,01,28,06,38,15.70
2006,01,28,06,39,13.30
2006,01,28,06,40,19.00
2006,01,28,06,41,21.70
2006,01,28,06,42,22.20
2006,01,28,06,43,17.90
2006,01,28,06,44,16.10
2006,01,28,06,45,21.20
2006,01,28,06,46,19.20
2006,01,28,06,47,14.60
2006,01,28,06,48,18.40
2006,01,28,06,49,15.60
2006,01,28,06,50,11.50
2006,01,28,06,51,18.00
2006,01,28,06,52,20.20
2006,01,28,06,53,15.20
2006,01,28,06,54,9.40
2006,01,28,06,55,11.20
2006,01,28,06,56,8.20
2006,01,28,06,57,12.70
2006,01,28,06,58,16.40
2006,01,28,06,59,21.80
2006,01,28,07,00,15.30
2006,01,28,07,01,14.10
2006,01,28,07,02,21.70
2006,01,28,07,03,14.80
2006,01,28,07,04,18.30
2006,01,28,07,05,18.90
2006,01,28,07,06,14.70
2006,01,28,07,07,17.30
2006,01,28,07,08,18.50
2006,01,28,07,09,15.80
2006,01,28,07,10,13.90
2006,01,28,07,11,15.70
2006,01,28,07,12,13.00
2006,01,28,07,13,12.60
2006,01,28,07,14,20.70
2006,01,28,07,15,19.80
2006,01,28,07,16,15.10
2006,01,28,07,17,14.70
2006,01,28,07,18,18.80
2006,01,28,07,19,19.10
2006,01,28,07,20,16.90
2006,01,28,07,21,16.30
2006,01,28,07,22,13.00
2006,01,28,07,23,18.10
2006,01,28,07,24,20.00
2006,01,28,07,25,15.20
2006,01,28,07,26,18.50
2006,01,28,07,27,16.80
2006,01,28,07,28,17.20
2006,01,28,07,29,23.00
2006,01,28,07,30,19.00
2006,01,28,07,31,18.60
2006,01,28,07,32,16.30
2006,01,28,07,33,17.60
2006,01,28,07,34,18.10
2006,01,28,07,35,18.80
2006,01,28,07,36,20.20
2006,01,28,07,37,22.30
2006,01,28,07,38,17.60
2006,01,28,07,39,17.00
2006,01,28,07,40,19.30
2006,01,28,07,41,19.80
2006,01,28,07,42,20.50
2006,01,28,07,43,15.90
2006,01,28,07,44,14.30
2006,01,28,07,45,25.50
2006,01,28,07,46,20.30
2006,01,28,07,47,28.40
2006,01,28,07,48,30.40
2006,01,28,07,49,19.20
2006,01,28,07,50,25.90
2006,01,28,07,51,23.50
2006,01,28,07,52,25.70
2006,01,28,07,53,17.20
2006,01,28,07,54,17.50
2006,01,28,07,55,24.90
2006,01,28,07,56,25.00
2006,01,28,07,57,31.40
2006,01,28,07,58,20.00
2006,01,28,07,59,23.50
2006,01,28,08,00,19.50
2006,01,28,08,01,15.70
2006,01,28,08,02,24.50
2006,01,28,08,03,30.00
2006,01,28,08,04,27.60
2006,01,28,08,05,25.50
2006,01,28,08,06,27.80
2006,01,28,08,07,25.60
2006,01,28,08,08,22.50
2006,01,28,08,09,23.90
2006,01,28,08,10,26.20
2006,01,28,08,11,17.00
2006,01,28,08,12,21.30
2006,01,28,08,13,20.00
2006,01,28,08,14,12.30
2006,01,28,08,15,7.80
2006,01,28,08,16,9.80
2006,01,28,08,17,12.30
2006,01,28,08,18,13.50
2006,01,28,08,19,19.10
2006,01,28,08,20,18.70
2006,01,28,08,21,14.40
2006,01,28,08,22,9.60
2006,01,28,08,23,9.60
2006,01,28,08,24,7.20
2006,01,28,08,25,9.80
2006,01,28,08,26,9.10
2006,01,28,08,27,11.80
2006,01,28,08,28,11.80
2006,01,28,08,29,4.90
2006,01,28,08,30,4.70
2006,01,28,08,31,8.30
2006,01,28,08,32,4.00
2006,01,28,08,33,4.30
2006,01,28,08,34,5.00
2006,01,28,08,35,0.70
2006,01,28,08,36,0.40
2006,01,28,08,37,2.50
2006,01,28,08,38,0.00
2006,01,28,08,39,1.90
2006,01,28,08,40,4.40
2006,01,28,08,41,5.60
2006,01,28,08,42,2.40
2006,01,28,08,43,4.60
2006,01,28,08,44,5.90
2006,01,28,08,45,4.70
2006,01,28,08,46,3.20
2006,01,28,08,47,1.70
2006,01,28,08,48,4.10
2006,01,28,08,49,6.80
2006,01,28,08,50,9.30
2006,01,28,08,51,6.10
2006,01,28,08,52,6.50
2006,01,28,08,53,4.70
2006,01,28,08,54,7.30
2006,01,28,08,55,7.30
2006,01,28,08,56,5.40
2006,01,28,08,57,7.10
2006,01,28,08,58,5.60
2006,01,28,08,59,3.60
2006,01,28,09,00,1.50
2006,01,28,09,01,4.70
2006,01,28,09,02,5.50
2006,01,28,09,03,5.20
2006,01,28,09,04,3.90
2006,01,28,09,05,4.20
2006,01,28,09,06,5.30
2006,01,28,09,07,6.30
2006,01,28,09,08,5.60
2006,01,28,09,09,6.30
2006,01,28,09,10,4.30
2006,01,28,09,11,5.80
2006,01,28,09,12,4.90
2006,01,28,09,13,3.90
2006,01,28,09,14,11.70
2006,01,28,09,15,6.80
2006,01,28,09,16,5.80
2006,01,28,09,17,8.70
2006,01,28,09,18,9.40
2006,01,28,09,19,6.00
2006,01,28,09,20,7.80
2006,01,28,09,21,4.70
2006,01,28,09,22,3.60
2006,01,28,09,23,6.50
2006,01,28,09,24,5.80
2006,01,28,09,25,5.70
2006,01,28,09,26,6.10
2006,01,28,09,27,5.80
2006,01,28,09,28,7.60
2006,01,28,09,29,15.20
2006,01,28,09,30,10.90
2006,01,28,09,31,8.40
2006,01,28,09,32,16.00
2006,01,28,09,33,10.50
2006,01,28,09,34,13.80
2006,01,28,09,35,8.10
2006,01,28,09,36,5.80
2006,01,28,09,37,9.20
2006,01,28,09,38,2.90
2006,01,28,09,39,2.00
2006,01,28,09,40,0.40
2006,01,28,09,41,0.40
2006,01,28,09,42,0.20
2006,01,28,09,43,0.80
2006,01,28,09,44,1.60
2006,01,28,09,45,2.00
2006,01,28,09,46,0.80
2006,01,28,09,47,0.10
2006,01,28,09,48,0.90
2006,01,28,09,49,2.00
2006,01,28,09,50,1.90
2006,01,28,09,51,1.20
2006,01,28,09,52,0.00
2006,01,28,09,53,1.80
2006,01,28,09,54,0.70
2006,01,28,09,55,1.80
2006,01,28,09,56,6.00
2006,01,28,09,57,10.10
2006,01,28,09,58,7.50
2006,01,28,09,59,7.80
2006,01,28,10,00,12.50
2006,01,28,10,01,10.30
2006,01,28,10,02,10.60
2006,01,28,10,03,18.80
2006,01,28,10,04,24.30
2006,01,28,10,05,19.50
2006,01,28,10,06,31.40
2006,01,28,10,07,35.80
2006,01,28,10,08,29.50
2006,01,28,10,09,23.10
2006,01,28,10,10,15.70
2006,01,28,10,11,23.60
2006,01,28,10,12,22.30
2006,01,28,10,13,21.80
2006,01,28,10,14,20.00
2006,01,28,10,15,19.10
2006,01,28,10,16,21.50
2006,01,28,10,17,17.40
2006,01,28,10,18,16.40
2006,01,28,10,19,12.80
2006,01,28,10,20,13.00
2006,01,28,10,21,15.60
2006,01,28,10,22,12.50
2006,01,28,10,23,10.70
2006,01,28,10,24,8.10
2006,01,28,10,25,8.70
2006,01,28,10,26,11.20
2006,01,28,10,27,7.30
2006,01,28,10,28,10.50
2006,01,28,10,29,8.40
2006,01,28,10,30,7.80
2006,01,28,10,31,5.60
2006,01,28,10,32,12.30
2006,01,28,10,33,12.00
2006,01,28,10,34,7.60
2006,01,28,10,35,5.50
2006,01,28,10,36,4.90
2006,01,28,10,37,5.60
2006,01,28,10,38,11.90
2006,01,28,10,39,10.80
2006,01,28,10,40,11.30
2006,01,28,10,41,14.90
2006,01,28,10,42,8.40
2006,01,28,10,43,10.50
2006,01,28,10,44,7.70
2006,01,28,10,45,7.90
2006,01,28,10,46,3.50
2006,01,28,10,47,2.30
2006,01,28,10,48,3.40
2006,01,28,10,49,6.40
2006,01,28,10,50,6.40
2006,01,28,10,51,6.80
2006,01,28,10,52,10.90
2006,01,28,10,53,8.40
2006,01,28,10,54,7.20
2006,01,28,10,55,11.50
2006,01,28,10,56,9.40
2006,01,28,10,57,7.60
2006,01,28,10,58,12.50
2006,01,28,10,59,7.80
2006,01,28,11,00,11.30
2006,01,28,11,01,20.90
2006,01,28,11,02,11.80
2006,01,28,11,03,21.90
2006,01,28,11,04,19.30
2006,01,28,11,05,15.60
2006,01,28,11,06,14.60
2006,01,28,11,07,16.60
2006,01,28,11,08,22.00
2006,01,28,11,09,22.10
2006,01,28,11,10,10.70
2006,01,28,11,11,11.10
2006,01,28,11,12,17.70
2006,01,28,11,13,11.10
2006,01,28,11,14,16.00
2006,01,28,11,15,18.10
2006,01,28,11,16,15.70
2006,01,28,11,17,17.80
2006,01,28,11,18,8.50
2006,01,28,11,19,8.70
2006,01,28,11,20,13.00
2006,01,28,11,21,11.90
2006,01,28,11,22,11.80
2006,01,28,11,23,17.10
2006,01,28,11,24,8.80
2006,01,28,11,25,11.90
2006,01,28,11,26,14.50
2006,01,28,11,27,6.20
2006,01,28,11,28,8.60
2006,01,28,11,29,11.30
2006,01,28,11,30,10.00
2006,01,28,11,31,8.40
2006,01,28,11,32,8.40
2006,01,28,11,33,6.10
2006,01,28,11,34,8.60
2006,01,28,11,35,5.60
2006,01,28,11,36,4.70
2006,01,28,11,37,7.40
2006,01,28,11,38,12.10
2006,01,28,11,39,8.30
2006,01,28,11,40,13.90
2006,01,28,11,41,13.20
2006,01,28,11,42,15.50
2006,01,28,11,43,8.90
2006,01,28,11,44,7.90
2006,01,28,11,45,8.20
2006,01,28,11,46,12.10
2006,01,28,11,47,14.10
2006,01,28,11,48,9.10
2006,01,28,11,49,13.50
2006,01,28,11,50,13.80
2006,01,28,11,51,16.50
2006,01,28,11,52,8.70
2006,01,28,11,53,9.40
2006,01,28,11,54,12.50
2006,01,28,11,55,7.70
2006,01,28,11,56,15.90
2006,01,28,11,57,9.10
2006,01,28,11,58,12.20
2006,01,28,11,59,5.70
2006,01,28,12,00,6.70
2006,01,28,12,01,11.20
2006,01,28,12,02,7.20
2006,01,28,12,03,6.40
2006,01,28,12,04,7.20
2006,01,28,12,05,10.90
2006,01,28,12,06,15.80
2006,01,28,12,07,18.60
2006,01,28,12,08,16.40
2006,01,28,12,09,16.50
2006,01,28,12,10,19.20
2006,01,28,12,11,19.70
2006,01,28,12,12,19.30
2006,01,28,12,13,21.20
2006,01,28,12,14,11.70
2006,01,28,12,15,17.40
2006,01,28,12,16,18.50
2006,01,28,12,17,17.50
2006,01,28,12,18,13.60
2006,01,28,12,19,14.50
2006,01,28,12,20,16.50
2006,01,28,12,21,18.70
2006,01,28,12,22,15.70
2006,01,28,12,23,11.90
2006,01,28,12,24,9.20
2006,01,28,12,25,14.30
2006,01,28,12,26,11.10
2006,01,28,12,27,15.60
2006,01,28,12,28,13.00
2006,01,28,12,29,13.40
2006,01,28,12,30,11.30
2006,01,28,12,31,12.10
2006,01,28,12,32,15.20
2006,01,28,12,33,16.10
2006,01,28,12,34,11.60
2006,01,28,12,35,7.30
2006,01,28,12,36,7.20
2006,01,28,12,37,5.10
2006,01,28,12,38,4.30
2006,01,28,12,39,7.20
2006,01,28,12,40,6.90
2006,01,28,12,41,6.80
2006,01,28,12,42,7.70
2006,01,28,12,43,10.50
2006,01,28,12,44,6.60
2006,01,28,12,45,8.80
2006,01,28,12,46,6.50
2006,01,28,12,47,4.70
2006,01,28,12,48,3.80
2006,01,28,12,49,2.90
2006,01,28,12,50,3.90
2006,01,28,12,51,4.40
2006,01,28,12,52,5.00
2006,01,28,12,53,5.40
2006,01,28,12,54,5.90
2006,01,28,12,55,4.50
2006,01,28,12,56,12.00
2006,01,28,12,57,11.80
2006,01,28,12,58,6.90
2006,01,28,12,59,13.70
2006,01,28,13,00,6.90
2006,01,28,13,01,7.20
2006,01,28,13,02,6.70
2006,01,28,13,03,9.50
2006,01,28,13,04,10.40
2006,01,28,13,05,12.50
2006,01,28,13,06,13.50
2006,01,28,13,07,16.70
2006,01,28,13,08,18.40
2006,01,28,13,09,12.50
2006,01,28,13,10,12.20
2006,01,28,13,11,11.30
2006,01,28,13,12,9.40
2006,01,28,13,13,8.10
2006,01,28,13,14,14.60
2006,01,28,13,15,11.60
2006,01,28,13,16,10.50
2006,01,28,13,17,7.20
2006,01,28,13,18,8.80
2006,01,28,13,19,11.20
2006,01,28,13,20,8.10
2006,01,28,13,21,7.20
2006,01,28,13,22,8.80
2006,01,28,13,23,20.70
2006,01,28,13,24,12.20
2006,01,28,13,25,8.70
2006,01,28,13,26,9.20
2006,01,28,13,27,5.70
2006,01,28,13,28,6.50
2006,01,28,13,29,9.50
2006,01,28,13,30,10.40
2006,01,28,13,31,8.60
2006,01,28,13,32,8.10
2006,01,28,13,33,19.20
2006,01,28,13,34,16.40
2006,01,28,13,35,13.80
2006,01,28,13,36,21.90
2006,01,28,13,37,19.60
2006,01,28,13,38,19.00
2006,01,28,13,39,23.00
2006,01,28,13,40,19.40
2006,01,28,13,41,15.20
2006,01,28,13,42,14.80
2006,01,28,13,43,13.20
2006,01,28,13,44,14.50
2006,01,28,13,45,7.00
2006,01,28,13,46,8.20
2006,01,28,13,47,8.60
2006,01,28,13,48,7.70
2006,01,28,13,49,5.30
2006,01,28,13,50,8.00
2006,01,28,13,51,8.20
2006,01,28,13,52,6.40
2006,01,28,13,53,8.10
2006,01,28,13,54,5.20
2006,01,28,13,55,4.50
2006,01,28,13,56,7.90
2006,01,28,13,57,6.80
2006,01,28,13,58,5.80
2006,01,28,13,59,5.60
2006,01,28,14,00,4.70
2006,01,28,14,01,4.20
2006,01,28,14,02,6.00
2006,01,28,14,03,7.60
2006,01,28,14,04,7.30
2006,01,28,14,05,6.20
2006,01,28,14,06,7.50
2006,01,28,14,07,11.20
2006,01,28,14,08,9.80
2006,01,28,14,09,13.50
2006,01,28,14,10,10.00
2006,01,28,14,11,9.70
2006,01,28,14,12,6.90
2006,01,28,14,13,8.90
2006,01,28,14,14,13.00
2006,01,28,14,15,15.30
2006,01,28,14,16,10.10
2006,01,28,14,17,8.80
2006,01,28,14,18,8.60
2006,01,28,14,19,8.80
2006,01,28,14,20,10.90
2006,01,28,14,21,9.60
2006,01,28,14,22,8.40
2006,01,28,14,23,7.30
2006,01,28,14,24,5.80
2006,01,28,14,25,5.20
2006,01,28,14,26,5.70
2006,01,28,14,27,5.80
2006,01,28,14,28,3.90
2006,01,28,14,29,6.30
2006,01,28,14,30,4.70
2006,01,28,14,31,9.50
2006,01,28,14,32,11.10
2006,01,28,14,33,9.60
2006,01,28,14,34,11.50
2006,01,28,14,35,12.70
2006,01,28,14,36,9.30
2006,01,28,14,37,9.20
2006,01,28,14,38,6.60
2006,01,28,14,39,5.80
2006,01,28,14,40,6.50
2006,01,28,14,41,8.50
2006,01,28,14,42,8.40
2006,01,28,14,43,7.30
2006,01,28,14,44,8.80
2006,01,28,14,45,7.70
2006,01,28,14,46,9.10
2006,01,28,14,47,14.50
2006,01,28,14,48,9.80
2006,01,28,14,49,7.30
2006,01,28,14,50,9.00
2006,01,28,14,51,8.10
2006,01,28,14,52,12.60
2006,01,28,14,53,9.10
2006,01,28,14,54,6.90
2006,01,28,14,55,6.30
2006,01,28,14,56,10.00
2006,01,28,14,57,7.70
2006,01,28,14,58,8.00
2006,01,28,14,59,9.20
2006,01,28,15,00,13.30
2006,01,28,15,01,7.70
2006,01,28,15,02,5.30
2006,01,28,15,03,8.80
2006,01,28,15,04,7.70
2006,01,28,15,05,5.10
2006,01,28,15,06,5.40
2006,01,28,15,07,8.40
2006,01,28,15,08,7.50
2006,01,28,15,09,6.20
2006,01,28,15,10,12.50
2006,01,28,15,11,11.20
2006,01,28,15,12,12.30
2006,01,28,15,13,14.20
2006,01,28,15,14,9.90
2006,01,28,15,15,10.10
2006,01,28,15,16,12.10
2006,01,28,15,17,9.10
2006,01,28,15,18,12.40
2006,01,28,15,19,10.70
2006,01,28,15,20,13.00
2006,01,28,15,21,11.00
2006,01,28,15,22,12.20
2006,01,28,15,23,7.20
2006,01,28,15,24,7.10
2006,01,28,15,25,5.40
2006,01,28,15,26,6.40
2006,01,28,15,27,12.60
2006,01,28,15,28,13.40
2006,01,28,15,29,11.60
2006,01,28,15,30,10.50
2006,01,28,15,31,8.20
2006,01,28,15,32,8.90
2006,01,28,15,33,7.40
2006,01,28,15,34,6.90
2006,01,28,15,35,12.00
2006,01,28,15,36,7.60
2006,01,28,15,37,12.20
2006,01,28,15,38,7.90
2006,01,28,15,39,6.90
2006,01,28,15,40,6.30
2006,01,28,15,41,6.40
2006,01,28,15,42,6.40
2006,01,28,15,43,5.60
2006,01,28,15,44,7.70
2006,01,28,15,45,8.00
2006,01,28,15,46,4.30
2006,01,28,15,47,2.60
2006,01,28,15,48,5.10
2006,01,28,15,49,4.70
2006,01,28,15,50,9.20
2006,01,28,15,51,8.40
2006,01,28,15,52,6.40
2006,01,28,15,53,6.30
2006,01,28,15,54,7.20
2006,01,28,15,55,7.90
2006,01,28,15,56,5.50
2006,01,28,15,57,12.60
2006,01,28,15,58,13.30
2006,01,28,15,59,10.60
2006,01,28,16,00,8.90
2006,01,28,16,01,8.50
2006,01,28,16,02,10.50
2006,01,28,16,03,9.60
2006,01,28,16,04,4.60
2006,01,28,16,05,6.00
2006,01,28,16,06,4.80
2006,01,28,16,07,5.10
2006,01,28,16,08,8.10
2006,01,28,16,09,7.20
2006,01,28,16,10,5.10
2006,01,28,16,11,6.30
2006,01,28,16,12,6.80
2006,01,28,16,13,5.90
2006,01,28,16,14,4.60
2006,01,28,16,15,6.30
2006,01,28,16,16,3.50
2006,01,28,16,17,3.30
2006,01,28,16,18,3.60
2006,01,28,16,19,5.30
2006,01,28,16,20,4.30
2006,01,28,16,21,3.60
2006,01,28,16,22,2.40
2006,01,28,16,23,3.90
2006,01,28,16,24,3.90
2006,01,28,16,25,3.20
2006,01,28,16,26,5.50
2006,01,28,16,27,3.50
2006,01,28,16,28,5.50
2006,01,28,16,29,3.00
2006,01,28,16,30,3.10
2006,01,28,16,31,0.80
2006,01,28,16,32,1.10
2006,01,28,16,33,0.50
2006,01,28,16,34,1.20
2006,01,28,16,35,0.30
2006,01,28,16,36,0.00
2006,01,28,16,37,0.00
2006,01,28,16,38,0.00
2006,01,28,16,39,0.00
2006,01,28,16,40,0.00
2006,01,28,16,41,0.40
2006,01,28,16,42,0.90
2006,01,28,16,43,0.10
2006,01,28,16,44,0.00
2006,01,28,16,45,0.00
2006,01,28,16,46,0.00
2006,01,28,16,47,0.00
2006,01,28,16,48,0.00
2006,01,28,16,49,0.00
2006,01,28,16,50,0.00
2006,01,28,16,51,0.00
2006,01,28,16,52,0.30
2006,01,28,16,53,1.60
2006,01,28,16,54,4.20
2006,01,28,16,55,4.40
2006,01,28,16,56,3.50
2006,01,28,16,57,2.20
2006,01,28,16,58,5.10
2006,01,28,16,59,8.00
2006,01,28,17,00,7.10
2006,01,28,17,01,6.00
2006,01,28,17,02,4.60
2006,01,28,17,03,8.30
2006,01,28,17,04,11.20
2006,01,28,17,05,9.30
2006,01,28,17,06,5.10
2006,01,28,17,07,5.10
2006,01,28,17,08,10.20
2006,01,28,17,09,14.20
2006,01,28,17,10,12.50
2006,01,28,17,11,11.80
2006,01,28,17,12,6.70
2006,01,28,17,13,7.80
2006,01,28,17,14,6.60
2006,01,28,17,15,7.10
2006,01,28,17,16,6.80
2006,01,28,17,17,11.70
2006,01,28,17,18,15.30
2006,01,28,17,19,13.50
2006,01,28,17,20,9.10
2006,01,28,17,21,11.20
2006,01,28,17,22,13.60
2006,01,28,17,23,14.10
2006,01,28,17,24,10.00
2006,01,28,17,25,10.40
2006,01,28,17,26,13.60
2006,01,28,17,27,16.90
2006,01,28,17,28,12.10
2006,01,28,17,29,12.50
2006,01,28,17,30,8.60
2006,01,28,17,31,8.10
2006,01,28,17,32,14.10
2006,01,28,17,33,18.60
2006,01,28,17,34,15.80
2006,01,28,17,35,9.30